owner,sensor,date,latitude,longitude,air_temperature,qcFlag 
DISL,ioos:station:DISL:MBLA:1,2016-05-01T00:00:00Z,30.4367,-88.0117,25.01,1111122 
DISL,ioos:station:DISL:MBLA:1,2016-05-01T00:30:00Z,30.4367,-88.0117,25.07,1111122 
DISL,ioos:station:DISL:MBLA:1,2016-05-01T01:00:00Z,30.4367,-88.0117,25.01,1111122 
DISL,ioos:station:DISL:MBLA:1,2016-05-01T01:30:00Z,30.4367,-88.0117,20.9,1111122 
DISL,ioos:station:DISL:MBLA:1,2016-05-01T02:00:00Z,30.4367,-88.0117,21.53,1111122 
DISL,ioos:station:DISL:MBLA:1,2016-05-01T02:30:00Z,30.4367,-88.0117,22.76,1111122 
DISL,ioos:station:DISL:MBLA:1,2016-05-01T03:00:00Z,30.4367,-88.0117,22.69,1111122 
DISL,ioos:station:DISL:MBLA:1,2016-05-01T03:30:00Z,30.4367,-88.0117,23.47,1111122 
DISL,ioos:station:DISL:MBLA:1,2016-05-01T04:00:00Z,30.4367,-88.0117,23.66,1111122 
DISL,ioos:station:DISL:MBLA:1,2016-05-01T04:30:00Z,30.4367,-88.0117,24.23,1111122 
DISL,ioos:station:DISL:MBLA:1,2016-05-01T05:00:00Z,30.4367,-88.0117,23.99,1111122 
DISL,ioos:station:DISL:MBLA:1,2016-05-01T05:30:00Z,30.4367,-88.0117,23.96,1111122 
DISL,ioos:station:DISL:MBLA:1,2016-05-01T06:00:00Z,30.4367,-88.0117,23.82,1111122 
DISL,ioos:station:DISL:MBLA:1,2016-05-01T06:30:00Z,30.4367,-88.0117,23.99,1111122 
DISL,ioos:station:DISL:MBLA:1,2016-05-01T07:00:00Z,30.4367,-88.0117,24.02,1111122 
DISL,ioos:station:DISL:MBLA:1,2016-05-01T07:30:00Z,30.4367,-88.0117,24.19,1111122 
DISL,ioos:station:DISL:MBLA:1,2016-05-01T08:00:00Z,30.4367,-88.0117,24.43,1111122 
DISL,ioos:station:DISL:MBLA:1,2016-05-01T08:30:00Z,30.4367,-88.0117,24.53,1111122 
DISL,ioos:station:DISL:MBLA:1,2016-05-01T09:00:00Z,30.4367,-88.0117,24.53,1111122 
DISL,ioos:station:DISL:MBLA:1,2016-05-01T09:30:00Z,30.4367,-88.0117,24.4,1111122 
DISL,ioos:station:DISL:MBLA:1,2016-05-01T10:00:00Z,30.4367,-88.0117,24.36,1111122 
DISL,ioos:station:DISL:MBLA:1,2016-05-01T10:30:00Z,30.4367,-88.0117,24.29,1111122 
DISL,ioos:station:DISL:MBLA:1,2016-05-01T11:00:00Z,30.4367,-88.0117,24.23,1111122 
DISL,ioos:station:DISL:MBLA:1,2016-05-01T11:30:00Z,30.4367,-88.0117,24.23,1111122 
DISL,ioos:station:DISL:MBLA:1,2016-05-01T12:00:00Z,30.4367,-88.0117,24.23,1111122 
DISL,ioos:station:DISL:MBLA:1,2016-05-01T12:30:00Z,30.4367,-88.0117,24.23,1111122 
DISL,ioos:station:DISL:MBLA:1,2016-05-01T13:00:00Z,30.4367,-88.0117,24.33,1111122 
DISL,ioos:station:DISL:MBLA:1,2016-05-01T13:30:00Z,30.4367,-88.0117,24.4,1111122 
DISL,ioos:station:DISL:MBLA:1,2016-05-01T14:00:00Z,30.4367,-88.0117,24.43,1111122 
DISL,ioos:station:DISL:MBLA:1,2016-05-01T14:30:00Z,30.4367,-88.0117,24.57,1111122 
DISL,ioos:station:DISL:MBLA:1,2016-05-01T15:00:00Z,30.4367,-88.0117,24.57,1111122 
DISL,ioos:station:DISL:MBLA:1,2016-05-01T15:30:00Z,30.4367,-88.0117,24.77,1111122 
DISL,ioos:station:DISL:MBLA:1,2016-05-01T16:00:00Z,30.4367,-88.0117,24.9,1111122 
DISL,ioos:station:DISL:MBLA:1,2016-05-01T16:30:00Z,30.4367,-88.0117,24.94,1111122 
DISL,ioos:station:DISL:MBLA:1,2016-05-01T17:00:00Z,30.4367,-88.0117,25.11,1111122 
DISL,ioos:station:DISL:MBLA:1,2016-05-01T17:30:00Z,30.4367,-88.0117,25.07,1111122 
DISL,ioos:station:DISL:MBLA:1,2016-05-01T18:00:00Z,30.4367,-88.0117,25.04,1111122 
DISL,ioos:station:DISL:MBLA:1,2016-05-01T18:30:00Z,30.4367,-88.0117,25.11,1111122 
DISL,ioos:station:DISL:MBLA:1,2016-05-01T19:00:00Z,30.4367,-88.0117,25.11,1111122 
DISL,ioos:station:DISL:MBLA:1,2016-05-01T19:30:00Z,30.4367,-88.0117,25.07,1111122 
DISL,ioos:station:DISL:MBLA:1,2016-05-01T20:00:00Z,30.4367,-88.0117,25.21,1111122 
DISL,ioos:station:DISL:MBLA:1,2016-05-01T20:30:00Z,30.4367,-88.0117,25.21,1111122 
DISL,ioos:station:DISL:MBLA:1,2016-05-01T21:00:00Z,30.4367,-88.0117,25.24,1111122 
DISL,ioos:station:DISL:MBLA:1,2016-05-01T21:30:00Z,30.4367,-88.0117,25.21,1111122 
DISL,ioos:station:DISL:MBLA:1,2016-05-01T22:00:00Z,30.4367,-88.0117,25.14,1111122 
DISL,ioos:station:DISL:MBLA:1,2016-05-01T22:30:00Z,30.4367,-88.0117,25.07,1111122 
DISL,ioos:station:DISL:MBLA:1,2016-05-01T23:00:00Z,30.4367,-88.0117,25.04,1111122 
DISL,ioos:station:DISL:MBLA:1,2016-05-01T23:30:00Z,30.4367,-88.0117,25.01,1111122 
DISL,ioos:station:DISL:MBLA:1,2016-05-02T00:00:00Z,30.4367,-88.0117,25.01,1111122 
DISL,ioos:station:DISL:MBLA:1,2016-05-02T00:30:00Z,30.4367,-88.0117,24.84,1111122 
DISL,ioos:station:DISL:MBLA:1,2016-05-02T01:00:00Z,30.4367,-88.0117,24.77,1111122 
DISL,ioos:station:DISL:MBLA:1,2016-05-02T01:30:00Z,30.4367,-88.0117,25.04,1111122 
DISL,ioos:station:DISL:MBLA:1,2016-05-02T02:00:00Z,30.4367,-88.0117,25.07,1111122 
DISL,ioos:station:DISL:MBLA:1,2016-05-02T02:30:00Z,30.4367,-88.0117,24.94,1111122 
DISL,ioos:station:DISL:MBLA:1,2016-05-02T03:00:00Z,30.4367,-88.0117,25.01,1111122 
DISL,ioos:station:DISL:MBLA:1,2016-05-02T03:30:00Z,30.4367,-88.0117,24.84,1111122 
DISL,ioos:station:DISL:MBLA:1,2016-05-02T04:00:00Z,30.4367,-88.0117,24.9,1111122 
DISL,ioos:station:DISL:MBLA:1,2016-05-02T04:30:00Z,30.4367,-88.0117,24.77,1111122 
DISL,ioos:station:DISL:MBLA:1,2016-05-02T05:00:00Z,30.4367,-88.0117,24.57,1111122 
DISL,ioos:station:DISL:MBLA:1,2016-05-02T05:30:00Z,30.4367,-88.0117,24.57,1111122 
DISL,ioos:station:DISL:MBLA:1,2016-05-02T06:00:00Z,30.4367,-88.0117,24.84,1111122 
DISL,ioos:station:DISL:MBLA:1,2016-05-02T06:30:00Z,30.4367,-88.0117,24.94,1111122 
DISL,ioos:station:DISL:MBLA:1,2016-05-02T07:00:00Z,30.4367,-88.0117,25.07,1111122 
DISL,ioos:station:DISL:MBLA:1,2016-05-02T07:30:00Z,30.4367,-88.0117,24.4,1111122 
DISL,ioos:station:DISL:MBLA:1,2016-05-02T08:00:00Z,30.4367,-88.0117,24.5,1111122 
DISL,ioos:station:DISL:MBLA:1,2016-05-02T08:30:00Z,30.4367,-88.0117,24.29,1111122 
DISL,ioos:station:DISL:MBLA:1,2016-05-02T09:00:00Z,30.4367,-88.0117,24.36,1111122 
DISL,ioos:station:DISL:MBLA:1,2016-05-02T09:30:00Z,30.4367,-88.0117,24.46,1111122 
DISL,ioos:station:DISL:MBLA:1,2016-05-02T10:00:00Z,30.4367,-88.0117,24.46,1111122 
DISL,ioos:station:DISL:MBLA:1,2016-05-02T10:30:00Z,30.4367,-88.0117,24.46,1111122 
DISL,ioos:station:DISL:MBLA:1,2016-05-02T11:00:00Z,30.4367,-88.0117,24.4,1111122 
DISL,ioos:station:DISL:MBLA:1,2016-05-02T11:30:00Z,30.4367,-88.0117,23.92,1111122 
DISL,ioos:station:DISL:MBLA:1,2016-05-02T12:00:00Z,30.4367,-88.0117,24.02,1111122 
DISL,ioos:station:DISL:MBLA:1,2016-05-02T12:30:00Z,30.4367,-88.0117,24.46,1111122 
DISL,ioos:station:DISL:MBLA:1,2016-05-02T13:00:00Z,30.4367,-88.0117,24.67,1111122 
DISL,ioos:station:DISL:MBLA:1,2016-05-02T13:30:00Z,30.4367,-88.0117,24.53,1111122 
DISL,ioos:station:DISL:MBLA:1,2016-05-02T14:00:00Z,30.4367,-88.0117,24.57,1111122 
DISL,ioos:station:DISL:MBLA:1,2016-05-02T14:30:00Z,30.4367,-88.0117,24.87,1111122 
DISL,ioos:station:DISL:MBLA:1,2016-05-02T15:00:00Z,30.4367,-88.0117,24.84,1111122 
DISL,ioos:station:DISL:MBLA:1,2016-05-02T15:30:00Z,30.4367,-88.0117,24.87,1111122 
DISL,ioos:station:DISL:MBLA:1,2016-05-02T16:00:00Z,30.4367,-88.0117,24.94,1111122 
DISL,ioos:station:DISL:MBLA:1,2016-05-02T16:30:00Z,30.4367,-88.0117,24.97,1111122 
DISL,ioos:station:DISL:MBLA:1,2016-05-02T17:00:00Z,30.4367,-88.0117,25.2,1111122 
DISL,ioos:station:DISL:MBLA:1,2016-05-02T17:30:00Z,30.4367,-88.0117,25.3,1111122 
DISL,ioos:station:DISL:MBLA:1,2016-05-02T18:00:00Z,30.4367,-88.0117,25.33,1111122 
DISL,ioos:station:DISL:MBLA:1,2016-05-02T18:30:00Z,30.4367,-88.0117,25.37,1111122 
DISL,ioos:station:DISL:MBLA:1,2016-05-02T19:00:00Z,30.4367,-88.0117,25.47,1111122 
DISL,ioos:station:DISL:MBLA:1,2016-05-02T19:30:00Z,30.4367,-88.0117,25.26,1111122 
DISL,ioos:station:DISL:MBLA:1,2016-05-02T20:00:00Z,30.4367,-88.0117,25.26,1111122 
DISL,ioos:station:DISL:MBLA:1,2016-05-02T20:30:00Z,30.4367,-88.0117,25.43,1111122 
DISL,ioos:station:DISL:MBLA:1,2016-05-02T21:00:00Z,30.4367,-88.0117,25.33,1111122 
DISL,ioos:station:DISL:MBLA:1,2016-05-02T21:30:00Z,30.4367,-88.0117,25.4,1111122 
DISL,ioos:station:DISL:MBLA:1,2016-05-02T22:00:00Z,30.4367,-88.0117,25.44,1111122 
DISL,ioos:station:DISL:MBLA:1,2016-05-02T22:30:00Z,30.4367,-88.0117,25.17,1111122 
DISL,ioos:station:DISL:MBLA:1,2016-05-02T23:00:00Z,30.4367,-88.0117,25.21,1111122 
DISL,ioos:station:DISL:MBLA:1,2016-05-02T23:30:00Z,30.4367,-88.0117,25.24,1111122 
DISL,ioos:station:DISL:MBLA:1,2016-05-03T00:00:00Z,30.4367,-88.0117,25.24,1111122 
DISL,ioos:station:DISL:MBLA:1,2016-05-03T00:30:00Z,30.4367,-88.0117,22.29,1111122 
DISL,ioos:station:DISL:MBLA:1,2016-05-03T01:00:00Z,30.4367,-88.0117,22.36,1111122 
DISL,ioos:station:DISL:MBLA:1,2016-05-03T01:30:00Z,30.4367,-88.0117,22.5,1111122 
DISL,ioos:station:DISL:MBLA:1,2016-05-03T02:00:00Z,30.4367,-88.0117,22.43,1111122 
DISL,ioos:station:DISL:MBLA:1,2016-05-03T02:30:00Z,30.4367,-88.0117,22.64,1111122 
DISL,ioos:station:DISL:MBLA:1,2016-05-03T03:00:00Z,30.4367,-88.0117,22.85,1111122 
DISL,ioos:station:DISL:MBLA:1,2016-05-03T03:30:00Z,30.4367,-88.0117,22.92,1111122 
DISL,ioos:station:DISL:MBLA:1,2016-05-03T04:00:00Z,30.4367,-88.0117,23.36,1111122 
DISL,ioos:station:DISL:MBLA:1,2016-05-03T04:30:00Z,30.4367,-88.0117,23.29,1111122 
DISL,ioos:station:DISL:MBLA:1,2016-05-03T05:00:00Z,30.4367,-88.0117,23.46,1111122 
DISL,ioos:station:DISL:MBLA:1,2016-05-03T05:30:00Z,30.4367,-88.0117,23.52,1111122 
DISL,ioos:station:DISL:MBLA:1,2016-05-03T06:00:00Z,30.4367,-88.0117,23.83,1111122 
DISL,ioos:station:DISL:MBLA:1,2016-05-03T06:30:00Z,30.4367,-88.0117,24.17,1111122 
DISL,ioos:station:DISL:MBLA:1,2016-05-03T07:00:00Z,30.4367,-88.0117,24.4,1111122 
DISL,ioos:station:DISL:MBLA:1,2016-05-03T07:30:00Z,30.4367,-88.0117,23.82,1111122 
DISL,ioos:station:DISL:MBLA:1,2016-05-03T08:00:00Z,30.4367,-88.0117,23.58,1111122 
DISL,ioos:station:DISL:MBLA:1,2016-05-03T08:30:00Z,30.4367,-88.0117,23.59,1111122 
DISL,ioos:station:DISL:MBLA:1,2016-05-03T09:00:00Z,30.4367,-88.0117,23.65,1111122 
DISL,ioos:station:DISL:MBLA:1,2016-05-03T09:30:00Z,30.4367,-88.0117,23.45,1111122 
DISL,ioos:station:DISL:MBLA:1,2016-05-03T10:00:00Z,30.4367,-88.0117,23.18,1111122 
DISL,ioos:station:DISL:MBLA:1,2016-05-03T10:30:00Z,30.4367,-88.0117,22.74,1111122 
DISL,ioos:station:DISL:MBLA:1,2016-05-03T11:00:00Z,30.4367,-88.0117,22.41,1111122 
DISL,ioos:station:DISL:MBLA:1,2016-05-03T11:30:00Z,30.4367,-88.0117,22.31,1111122 
DISL,ioos:station:DISL:MBLA:1,2016-05-03T12:00:00Z,30.4367,-88.0117,22.31,1111122 
DISL,ioos:station:DISL:MBLA:1,2016-05-03T12:30:00Z,30.4367,-88.0117,21.91,1111122 
DISL,ioos:station:DISL:MBLA:1,2016-05-03T13:00:00Z,30.4367,-88.0117,21.81,1111122 
DISL,ioos:station:DISL:MBLA:1,2016-05-03T13:30:00Z,30.4367,-88.0117,21.7,1111122 
DISL,ioos:station:DISL:MBLA:1,2016-05-03T14:00:00Z,30.4367,-88.0117,21.33,1111122 
DISL,ioos:station:DISL:MBLA:1,2016-05-03T14:30:00Z,30.4367,-88.0117,21.3,1111122 
DISL,ioos:station:DISL:MBLA:1,2016-05-03T15:00:00Z,30.4367,-88.0117,21.54,1111122 
DISL,ioos:station:DISL:MBLA:1,2016-05-03T15:30:00Z,30.4367,-88.0117,21.84,1111122 
DISL,ioos:station:DISL:MBLA:1,2016-05-03T16:00:00Z,30.4367,-88.0117,22.78,1111122 
DISL,ioos:station:DISL:MBLA:1,2016-05-03T16:30:00Z,30.4367,-88.0117,23.85,1111122 
DISL,ioos:station:DISL:MBLA:1,2016-05-03T17:00:00Z,30.4367,-88.0117,24.53,1111122 
DISL,ioos:station:DISL:MBLA:1,2016-05-03T17:30:00Z,30.4367,-88.0117,24.5,1111122 
DISL,ioos:station:DISL:MBLA:1,2016-05-03T18:00:00Z,30.4367,-88.0117,25.23,1111122 
DISL,ioos:station:DISL:MBLA:1,2016-05-03T18:30:00Z,30.4367,-88.0117,25.53,1111122 
DISL,ioos:station:DISL:MBLA:1,2016-05-03T19:00:00Z,30.4367,-88.0117,25.09,1111122 
DISL,ioos:station:DISL:MBLA:1,2016-05-03T19:30:00Z,30.4367,-88.0117,25.29,1111122 
DISL,ioos:station:DISL:MBLA:1,2016-05-03T20:00:00Z,30.4367,-88.0117,25.47,1111122 
DISL,ioos:station:DISL:MBLA:1,2016-05-03T20:30:00Z,30.4367,-88.0117,25.2,1111122 
DISL,ioos:station:DISL:MBLA:1,2016-05-03T21:00:00Z,30.4367,-88.0117,25.23,1111122 
DISL,ioos:station:DISL:MBLA:1,2016-05-03T21:30:00Z,30.4367,-88.0117,24.22,1111122 
DISL,ioos:station:DISL:MBLA:1,2016-05-03T22:00:00Z,30.4367,-88.0117,23.58,1111122 
DISL,ioos:station:DISL:MBLA:1,2016-05-03T22:30:00Z,30.4367,-88.0117,23.65,1111122 
DISL,ioos:station:DISL:MBLA:1,2016-05-03T23:00:00Z,30.4367,-88.0117,23.55,1111122 
DISL,ioos:station:DISL:MBLA:1,2016-05-03T23:30:00Z,30.4367,-88.0117,23.65,1111122 
DISL,ioos:station:DISL:MBLA:1,2016-05-04T00:00:00Z,30.4367,-88.0117,23.31,1111122 
DISL,ioos:station:DISL:MBLA:1,2016-05-04T00:30:00Z,30.4367,-88.0117,23.31,1111122 
DISL,ioos:station:DISL:MBLA:1,2016-05-04T01:00:00Z,30.4367,-88.0117,23.14,1111122 
DISL,ioos:station:DISL:MBLA:1,2016-05-04T01:30:00Z,30.4367,-88.0117,23.01,1111122 
DISL,ioos:station:DISL:MBLA:1,2016-05-04T02:00:00Z,30.4367,-88.0117,22.98,1111122 
DISL,ioos:station:DISL:MBLA:1,2016-05-04T02:30:00Z,30.4367,-88.0117,22.88,1111122 
DISL,ioos:station:DISL:MBLA:1,2016-05-04T03:00:00Z,30.4367,-88.0117,22.81,1111122 
DISL,ioos:station:DISL:MBLA:1,2016-05-04T03:30:00Z,30.4367,-88.0117,22.58,1111122 
DISL,ioos:station:DISL:MBLA:1,2016-05-04T04:00:00Z,30.4367,-88.0117,22.34,1111122 
DISL,ioos:station:DISL:MBLA:1,2016-05-04T04:30:00Z,30.4367,-88.0117,22.18,1111122 
DISL,ioos:station:DISL:MBLA:1,2016-05-04T05:00:00Z,30.4367,-88.0117,21.94,1111122 
DISL,ioos:station:DISL:MBLA:1,2016-05-04T05:30:00Z,30.4367,-88.0117,21.84,1111122 
DISL,ioos:station:DISL:MBLA:1,2016-05-04T06:00:00Z,30.4367,-88.0117,21.4,1111122 
DISL,ioos:station:DISL:MBLA:1,2016-05-04T06:30:00Z,30.4367,-88.0117,20.72,1111122 
DISL,ioos:station:DISL:MBLA:1,2016-05-04T07:00:00Z,30.4367,-88.0117,20.21,1111122 
DISL,ioos:station:DISL:MBLA:1,2016-05-04T07:30:00Z,30.4367,-88.0117,19.71,1111122 
DISL,ioos:station:DISL:MBLA:1,2016-05-04T08:00:00Z,30.4367,-88.0117,19.37,1111122 
DISL,ioos:station:DISL:MBLA:1,2016-05-04T08:30:00Z,30.4367,-88.0117,18.76,1111122 
DISL,ioos:station:DISL:MBLA:1,2016-05-04T09:00:00Z,30.4367,-88.0117,18.49,1111122 
DISL,ioos:station:DISL:MBLA:1,2016-05-04T09:30:00Z,30.4367,-88.0117,18.47,1111122 
DISL,ioos:station:DISL:MBLA:1,2016-05-04T10:00:00Z,30.4367,-88.0117,18.26,1111122 
DISL,ioos:station:DISL:MBLA:1,2016-05-04T10:30:00Z,30.4367,-88.0117,18.37,1111122 
DISL,ioos:station:DISL:MBLA:1,2016-05-04T11:00:00Z,30.4367,-88.0117,18.1,1111122 
DISL,ioos:station:DISL:MBLA:1,2016-05-04T11:30:00Z,30.4367,-88.0117,18.3,1111122 
DISL,ioos:station:DISL:MBLA:1,2016-05-04T12:00:00Z,30.4367,-88.0117,18.3,1111122 
DISL,ioos:station:DISL:MBLA:1,2016-05-04T12:30:00Z,30.4367,-88.0117,17.69,1111122 
DISL,ioos:station:DISL:MBLA:1,2016-05-04T13:00:00Z,30.4367,-88.0117,17.55,1111122 
DISL,ioos:station:DISL:MBLA:1,2016-05-04T13:30:00Z,30.4367,-88.0117,17.75,1111122 
DISL,ioos:station:DISL:MBLA:1,2016-05-04T14:00:00Z,30.4367,-88.0117,17.68,1111122 
DISL,ioos:station:DISL:MBLA:1,2016-05-04T14:30:00Z,30.4367,-88.0117,18.16,1111122 
DISL,ioos:station:DISL:MBLA:1,2016-05-04T15:00:00Z,30.4367,-88.0117,18.66,1111122 
DISL,ioos:station:DISL:MBLA:1,2016-05-04T15:30:00Z,30.4367,-88.0117,19.06,1111122 
DISL,ioos:station:DISL:MBLA:1,2016-05-04T16:00:00Z,30.4367,-88.0117,19.6,1111122 
DISL,ioos:station:DISL:MBLA:1,2016-05-04T16:30:00Z,30.4367,-88.0117,20.04,1111122 
DISL,ioos:station:DISL:MBLA:1,2016-05-04T17:00:00Z,30.4367,-88.0117,20.42,1111122 
DISL,ioos:station:DISL:MBLA:1,2016-05-04T17:30:00Z,30.4367,-88.0117,20.62,1111122 
DISL,ioos:station:DISL:MBLA:1,2016-05-04T18:00:00Z,30.4367,-88.0117,20.86,1111122 
DISL,ioos:station:DISL:MBLA:1,2016-05-04T18:30:00Z,30.4367,-88.0117,21.16,1111122 
DISL,ioos:station:DISL:MBLA:1,2016-05-04T19:00:00Z,30.4367,-88.0117,21.43,1111122 
DISL,ioos:station:DISL:MBLA:1,2016-05-04T19:30:00Z,30.4367,-88.0117,22.1,1111122 
DISL,ioos:station:DISL:MBLA:1,2016-05-04T20:00:00Z,30.4367,-88.0117,22.7,1111122 
DISL,ioos:station:DISL:MBLA:1,2016-05-04T20:30:00Z,30.4367,-88.0117,22.74,1111122 
DISL,ioos:station:DISL:MBLA:1,2016-05-04T21:00:00Z,30.4367,-88.0117,23.24,1111122 
DISL,ioos:station:DISL:MBLA:1,2016-05-04T21:30:00Z,30.4367,-88.0117,23.58,1111122 
DISL,ioos:station:DISL:MBLA:1,2016-05-04T22:00:00Z,30.4367,-88.0117,24.02,1111122 
DISL,ioos:station:DISL:MBLA:1,2016-05-04T22:30:00Z,30.4367,-88.0117,24.16,1111122 
DISL,ioos:station:DISL:MBLA:1,2016-05-04T23:00:00Z,30.4367,-88.0117,24.43,1111122 
DISL,ioos:station:DISL:MBLA:1,2016-05-04T23:30:00Z,30.4367,-88.0117,24.33,1111122 
DISL,ioos:station:DISL:MBLA:1,2016-05-05T00:00:00Z,30.4367,-88.0117,24.12,1111122 
DISL,ioos:station:DISL:MBLA:1,2016-05-05T00:30:00Z,30.4367,-88.0117,23.68,1111122 
DISL,ioos:station:DISL:MBLA:1,2016-05-05T01:00:00Z,30.4367,-88.0117,23.24,1111122 
DISL,ioos:station:DISL:MBLA:1,2016-05-05T01:30:00Z,30.4367,-88.0117,23.01,1111122 
DISL,ioos:station:DISL:MBLA:1,2016-05-05T02:00:00Z,30.4367,-88.0117,22.92,1111122 
DISL,ioos:station:DISL:MBLA:1,2016-05-05T02:30:00Z,30.4367,-88.0117,22.55,1111122 
DISL,ioos:station:DISL:MBLA:1,2016-05-05T03:00:00Z,30.4367,-88.0117,22.55,1111122 
DISL,ioos:station:DISL:MBLA:1,2016-05-05T03:30:00Z,30.4367,-88.0117,22.28,1111122 
DISL,ioos:station:DISL:MBLA:1,2016-05-05T04:00:00Z,30.4367,-88.0117,22.21,1111122 
DISL,ioos:station:DISL:MBLA:1,2016-05-05T04:30:00Z,30.4367,-88.0117,21.94,1111122 
DISL,ioos:station:DISL:MBLA:1,2016-05-05T05:00:00Z,30.4367,-88.0117,21.94,1111122 
DISL,ioos:station:DISL:MBLA:1,2016-05-05T05:30:00Z,30.4367,-88.0117,21.94,1111122 
DISL,ioos:station:DISL:MBLA:1,2016-05-05T06:00:00Z,30.4367,-88.0117,21.98,1111122 
DISL,ioos:station:DISL:MBLA:1,2016-05-05T06:30:00Z,30.4367,-88.0117,21.67,1111122 
DISL,ioos:station:DISL:MBLA:1,2016-05-05T07:00:00Z,30.4367,-88.0117,21.64,1111122 
DISL,ioos:station:DISL:MBLA:1,2016-05-05T07:30:00Z,30.4367,-88.0117,21.71,1111122 
DISL,ioos:station:DISL:MBLA:1,2016-05-05T08:00:00Z,30.4367,-88.0117,21.5,1111122 
DISL,ioos:station:DISL:MBLA:1,2016-05-05T08:30:00Z,30.4367,-88.0117,20.38,1111122 
DISL,ioos:station:DISL:MBLA:1,2016-05-05T09:00:00Z,30.4367,-88.0117,19.91,1111122 
DISL,ioos:station:DISL:MBLA:1,2016-05-05T09:30:00Z,30.4367,-88.0117,19.81,1111122 
DISL,ioos:station:DISL:MBLA:1,2016-05-05T10:00:00Z,30.4367,-88.0117,19.61,1111122 
DISL,ioos:station:DISL:MBLA:1,2016-05-05T10:30:00Z,30.4367,-88.0117,19.27,1111122 
DISL,ioos:station:DISL:MBLA:1,2016-05-05T11:00:00Z,30.4367,-88.0117,19.07,1111122 
DISL,ioos:station:DISL:MBLA:1,2016-05-05T11:30:00Z,30.4367,-88.0117,19.04,1111122 
DISL,ioos:station:DISL:MBLA:1,2016-05-05T12:00:00Z,30.4367,-88.0117,19.11,1111122 
DISL,ioos:station:DISL:MBLA:1,2016-05-05T12:30:00Z,30.4367,-88.0117,19.38,1111122 
DISL,ioos:station:DISL:MBLA:1,2016-05-05T13:00:00Z,30.4367,-88.0117,19.71,1111122 
DISL,ioos:station:DISL:MBLA:1,2016-05-05T13:30:00Z,30.4367,-88.0117,19.5,1111122 
DISL,ioos:station:DISL:MBLA:1,2016-05-05T14:00:00Z,30.4367,-88.0117,19.26,1111122 
DISL,ioos:station:DISL:MBLA:1,2016-05-05T14:30:00Z,30.4367,-88.0117,19.64,1111122 
DISL,ioos:station:DISL:MBLA:1,2016-05-05T15:00:00Z,30.4367,-88.0117,19.77,1111122 
DISL,ioos:station:DISL:MBLA:1,2016-05-05T15:30:00Z,30.4367,-88.0117,19.98,1111122 
DISL,ioos:station:DISL:MBLA:1,2016-05-05T16:00:00Z,30.4367,-88.0117,20.42,1111122 
DISL,ioos:station:DISL:MBLA:1,2016-05-05T16:30:00Z,30.4367,-88.0117,20.79,1111122 
DISL,ioos:station:DISL:MBLA:1,2016-05-05T17:00:00Z,30.4367,-88.0117,21.37,1111122 
DISL,ioos:station:DISL:MBLA:1,2016-05-05T17:30:00Z,30.4367,-88.0117,21.57,1111122 
DISL,ioos:station:DISL:MBLA:1,2016-05-05T18:00:00Z,30.4367,-88.0117,21.97,1111122 
DISL,ioos:station:DISL:MBLA:1,2016-05-05T18:30:00Z,30.4367,-88.0117,23.08,1111122 
DISL,ioos:station:DISL:MBLA:1,2016-05-05T19:00:00Z,30.4367,-88.0117,23.41,1111122 
DISL,ioos:station:DISL:MBLA:1,2016-05-05T19:30:00Z,30.4367,-88.0117,23.55,1111122 
DISL,ioos:station:DISL:MBLA:1,2016-05-05T20:00:00Z,30.4367,-88.0117,23.92,1111122 
DISL,ioos:station:DISL:MBLA:1,2016-05-05T20:30:00Z,30.4367,-88.0117,23.92,1111122 
DISL,ioos:station:DISL:MBLA:1,2016-05-05T21:00:00Z,30.4367,-88.0117,24.12,1111122 
DISL,ioos:station:DISL:MBLA:1,2016-05-05T21:30:00Z,30.4367,-88.0117,24.19,1111122 
DISL,ioos:station:DISL:MBLA:1,2016-05-05T22:00:00Z,30.4367,-88.0117,24.33,1111122 
DISL,ioos:station:DISL:MBLA:1,2016-05-05T22:30:00Z,30.4367,-88.0117,24.39,1111122 
DISL,ioos:station:DISL:MBLA:1,2016-05-05T23:00:00Z,30.4367,-88.0117,24.39,1111122 
DISL,ioos:station:DISL:MBLA:1,2016-05-05T23:30:00Z,30.4367,-88.0117,24.09,1111122 
DISL,ioos:station:DISL:MBLA:1,2016-05-06T00:00:00Z,30.4367,-88.0117,23.82,1111122 
DISL,ioos:station:DISL:MBLA:1,2016-05-06T00:30:00Z,30.4367,-88.0117,23.14,1111122 
DISL,ioos:station:DISL:MBLA:1,2016-05-06T01:00:00Z,30.4367,-88.0117,22.94,1111122 
DISL,ioos:station:DISL:MBLA:1,2016-05-06T01:30:00Z,30.4367,-88.0117,22.61,1111122 
DISL,ioos:station:DISL:MBLA:1,2016-05-06T02:00:00Z,30.4367,-88.0117,22.24,1111122 
DISL,ioos:station:DISL:MBLA:1,2016-05-06T02:30:00Z,30.4367,-88.0117,21.98,1111122 
DISL,ioos:station:DISL:MBLA:1,2016-05-06T03:00:00Z,30.4367,-88.0117,21.94,1111122 
DISL,ioos:station:DISL:MBLA:1,2016-05-06T03:30:00Z,30.4367,-88.0117,21.47,1111122 
DISL,ioos:station:DISL:MBLA:1,2016-05-06T04:00:00Z,30.4367,-88.0117,21.13,1111122 
DISL,ioos:station:DISL:MBLA:1,2016-05-06T04:30:00Z,30.4367,-88.0117,20.99,1111122 
DISL,ioos:station:DISL:MBLA:1,2016-05-06T05:00:00Z,30.4367,-88.0117,20.15,1111122 
DISL,ioos:station:DISL:MBLA:1,2016-05-06T05:30:00Z,30.4367,-88.0117,20.01,1111122 
DISL,ioos:station:DISL:MBLA:1,2016-05-06T06:00:00Z,30.4367,-88.0117,19.85,1111122 
DISL,ioos:station:DISL:MBLA:1,2016-05-06T06:30:00Z,30.4367,-88.0117,19.51,1111122 
DISL,ioos:station:DISL:MBLA:1,2016-05-06T07:00:00Z,30.4367,-88.0117,19.48,1111122 
DISL,ioos:station:DISL:MBLA:1,2016-05-06T07:30:00Z,30.4367,-88.0117,19.07,1111122 
DISL,ioos:station:DISL:MBLA:1,2016-05-06T08:00:00Z,30.4367,-88.0117,18.64,1111122 
DISL,ioos:station:DISL:MBLA:1,2016-05-06T08:30:00Z,30.4367,-88.0117,18.33,1111122 
DISL,ioos:station:DISL:MBLA:1,2016-05-06T09:00:00Z,30.4367,-88.0117,17.83,1111122 
DISL,ioos:station:DISL:MBLA:1,2016-05-06T09:30:00Z,30.4367,-88.0117,17.42,1111122 
DISL,ioos:station:DISL:MBLA:1,2016-05-06T10:00:00Z,30.4367,-88.0117,16.88,1111122 
DISL,ioos:station:DISL:MBLA:1,2016-05-06T10:30:00Z,30.4367,-88.0117,16.37,1111122 
DISL,ioos:station:DISL:MBLA:1,2016-05-06T11:00:00Z,30.4367,-88.0117,16.13,1111122 
DISL,ioos:station:DISL:MBLA:1,2016-05-06T11:30:00Z,30.4367,-88.0117,15.96,1111122 
DISL,ioos:station:DISL:MBLA:1,2016-05-06T12:00:00Z,30.4367,-88.0117,16.13,1111122 
DISL,ioos:station:DISL:MBLA:1,2016-05-06T12:30:00Z,30.4367,-88.0117,16.5,1111122 
DISL,ioos:station:DISL:MBLA:1,2016-05-06T13:00:00Z,30.4367,-88.0117,16.33,1111122 
DISL,ioos:station:DISL:MBLA:1,2016-05-06T13:30:00Z,30.4367,-88.0117,16.16,1111122 
DISL,ioos:station:DISL:MBLA:1,2016-05-06T14:00:00Z,30.4367,-88.0117,16.03,1111122 
DISL,ioos:station:DISL:MBLA:1,2016-05-06T14:30:00Z,30.4367,-88.0117,16.37,1111122 
DISL,ioos:station:DISL:MBLA:1,2016-05-06T15:00:00Z,30.4367,-88.0117,16.61,1111122 
DISL,ioos:station:DISL:MBLA:1,2016-05-06T15:30:00Z,30.4367,-88.0117,16.88,1111122 
DISL,ioos:station:DISL:MBLA:1,2016-05-06T16:00:00Z,30.4367,-88.0117,17.21,1111122 
DISL,ioos:station:DISL:MBLA:1,2016-05-06T16:30:00Z,30.4367,-88.0117,17.65,1111122 
DISL,ioos:station:DISL:MBLA:1,2016-05-06T17:00:00Z,30.4367,-88.0117,18.02,1111122 
DISL,ioos:station:DISL:MBLA:1,2016-05-06T17:30:00Z,30.4367,-88.0117,18.67,1111122 
DISL,ioos:station:DISL:MBLA:1,2016-05-06T18:00:00Z,30.4367,-88.0117,19.28,1111122 
DISL,ioos:station:DISL:MBLA:1,2016-05-06T18:30:00Z,30.4367,-88.0117,19.74,1111122 
DISL,ioos:station:DISL:MBLA:1,2016-05-06T19:00:00Z,30.4367,-88.0117,20.28,1111122 
DISL,ioos:station:DISL:MBLA:1,2016-05-06T19:30:00Z,30.4367,-88.0117,20.76,1111122 
DISL,ioos:station:DISL:MBLA:1,2016-05-06T20:00:00Z,30.4367,-88.0117,21.3,1111122 
DISL,ioos:station:DISL:MBLA:1,2016-05-06T20:30:00Z,30.4367,-88.0117,22.04,1111122 
DISL,ioos:station:DISL:MBLA:1,2016-05-06T21:00:00Z,30.4367,-88.0117,22.84,1111122 
DISL,ioos:station:DISL:MBLA:1,2016-05-06T21:30:00Z,30.4367,-88.0117,22.97,1111122 
DISL,ioos:station:DISL:MBLA:1,2016-05-06T22:00:00Z,30.4367,-88.0117,21.41,1111122 
DISL,ioos:station:DISL:MBLA:1,2016-05-06T22:30:00Z,30.4367,-88.0117,21.28,1111122 
DISL,ioos:station:DISL:MBLA:1,2016-05-06T23:00:00Z,30.4367,-88.0117,21.45,1111122 
DISL,ioos:station:DISL:MBLA:1,2016-05-06T23:30:00Z,30.4367,-88.0117,22.8,1111122 